SCP
0 0 0 0 0 0 0 0 0 0 0 0 0 0 0 0 0 0 0 0 0 1 1 0 0 0 0 0 0 0 0 0 0 0 0 0 0 0
0 0 0 0 0 0 0 0 0 0 0 0 0 0 0 0 0 0 0 0 0 0 0 0 0 0 0 0 0 0 0 0 0 0 0 0 0 0
0 0 0 0 0 0 0 0 0 0 0 0 0 0 0 0 0 0 0 0 0 0 0 0 0 0 0 0 0 0 0 0 0 0 0 0 0 0
0 0 0 0 0 0 0 0 0 0 0 0 0 0 0 0 0 0 0 0 0 0 0 0 0 0 0 0 0 0 0 0 0 0 0 0 0 0
0 0 0 0 0 0 0 0 0 0 0 0 0 0 0 0 0 0 0 0 0 0 0 0 0 0 0 0 0 0 0 0 0 0 0 0 0 0
0 0 0 0 0 0 0 0 0 0 0 0 0 0 0 0 0 0 0 0 0 0 0 0 0 0 0 0 0 0 0 0 0 0 0 0 0 0
0 0 0 0 0 0 0 0 0 0 0 0 0 0 0 0 0 0 0 0 0 0 0 0 0 0 0 0 0 0 0 0 0 0 0 0 0 0
0 0 0 0 0 0 0 0 0 0 0 0 0 0 0 0 0 0 0 0 0 0 0 0 0 0 0 0 0 0 0 0 0 0 0 0 0 0
0 0 0 0 0 0 0 0 0 0 0 0 0 0 0 0 0 0 0 0 0 0 0 0 0 0 0 0 0 0 0 0 0 0 0 0 0 0
0 0 0 0 0 0 0 0 0 0 0 0 0 0 0 0 0 0 0 0 0 0 0 0 0 0 0 0 0 0 0 0 0 0 0 0 0 0
0 0 0 0 0 0 0 0 0 0 0 0 0 0 0 0 0 0 0 0 0 0 0 0 0 0 0 0 0 0 0 0 0 0 0 0 0 0
0 0 0 0 0 0 0 0 0 0 0 0 0 0 0 0 0 0 0 0 0 0 0 0 0 0 0 0 0 0 0 0 0 0 0 0 0 0
0 0 0 0 0 0 0 0 0 0 0 0 0 0 0 0 0 0 0 0 0 0 0 0 0 0 0 0 0 0 0 0 0 0 0 0 0 0
0 0 0 0 0 0 0 0 0 0 0 0 0 0 0 0 0 0 0 0 0 0 0 0 0 0 0 0 0 0 0 0 0 0 0 0 0 0
0 0 0 0 0 0 0 0 0 0 0 0 0 0 0 0 0 0 0 0 0 0 0 0 0 0 0 0 0 0 0 0 0 0 0 0 0 0
0 0 0 0 0 0 0 0 0 0 0 0 0 0 0 0 0 0 0 0 0 0 0 0 0 0 0 0 0 0 0 0 0 0 0 0 0 0
0 0 0 0 0 0 0 0 0 0 0 0 0 0 0 0 0 0 0 0 0 0 0 0 0 0 0 0 0 0 0 0 0 0 0 0 0 0
0 0 0 0 0 0 0 0 0 0 0 0 0 0 0 0 0 0 0 0 0 0 0 0 0 0 0 0 0 0 0 0 0 0 0 0 0 0
0 0 0 0 0 0 0 0 0 0 0 0 0 0 0 0 0 0 0 0 0 0 0 0 0 0 0 0 0 0 0 0 0 0 0 0 0 0
0 0 0 0 0 0 0 0 0 0 0 0 0 0 0 0 0 0 0 0 0 0 0 0 0 0 0 0 0 0 0 0 0 0 0 0 0 0
0 0 0 0 0 0 0 0 0 0 0 0 0 0 0 0 0 0 0 0 0 0 0 0 0 0 0 0 0 0 0 0 0 0 0 0 0 0
0 0 0 0 0 0 0 0 0 0 0 0 0 0 0 0 0 0 0 0 0 0 0 0 0 0 0 0 0 0 0 0 0 0 0 0 0 0
0 0 0 0 0 0 0 0 0 0 0 0 0 0 0 0 0 0 0 0 0 0 0 0 0 0 0 0 0 0 0 0 0 0 0 0 0 0
Wind_Speed
4 4 3 3 3 3 3 4 4 3 3 3 2 2 2 3 6 6 6 11 13 12 12 11 11 10 9 9 7 6 5 4 4 4 4 3 3 3
3 3 3 2 2 3 3 3 3 4 3 3 3 2 1 2 6 5 6 10 12 12 12 12 12 11 11 10 9 7 6 6 6 5 5 4 4 4
2 2 3 2 2 2 2 2 3 3 3 3 2 2 2 2 2 3 4 4 5 10 12 13 13 13 12 11 10 9 9 8 8 7 7 7 6 5
2 2 2 2 2 2 2 2 2 3 3 3 2 2 2 2 2 2 3 4 4 8 12 13 13 13 13 12 11 11 10 10 9 9 9 9 9 8
2 3 2 2 2 1 2 2 2 2 2 2 2 1 1 1 0 1 1 1 2 4 8 10 12 12 12 11 11 11 11 11 10 10 10 10 10 9
2 2 2 3 3 2 1 1 1 1 1 1 1 1 1 1 0 0 1 1 1 2 2 3 6 9 10 11 12 12 12 12 12 11 11 11 10 10
3 2 1 3 4 3 2 2 2 2 1 1 0 1 0 0 0 0 1 1 1 1 1 1 2 2 4 8 11 12 12 13 12 12 12 12 11 12
3 2 1 2 3 4 4 4 4 3 2 2 1 0 1 0 0 0 0 1 1 1 1 2 1 2 3 3 6 9 10 11 12 12 12 12 12 12
3 2 2 2 3 2 3 3 2 2 3 3 2 1 1 1 1 0 0 1 1 1 1 2 1 2 2 2 4 5 7 8 8 8 9 10 10 10
2 3 3 2 2 3 3 2 2 2 1 1 2 1 1 1 2 1 1 0 1 1 1 1 2 2 2 2 3 3 3 3 3 4 5 6 7 8
4 3 3 2 2 5 4 4 3 3 2 3 3 2 2 3 2 2 2 2 2 2 1 1 2 2 2 2 3 4 4 3 3 4 4 4 5 5
4 4 5 5 5 6 4 4 4 2 2 3 4 5 4 4 4 2 1 1 1 2 2 1 2 2 2 2 3 3 3 4 5 5 5 4 4 2
3 3 4 6 7 7 6 3 3 3 3 4 4 4 4 4 4 3 2 1 1 1 2 1 1 2 1 2 3 3 3 3 3 3 4 5 4 2
3 3 4 9 10 10 7 7 9 7 4 4 4 4 4 3 3 4 4 3 3 2 2 2 1 1 2 2 2 3 3 3 3 3 3 5 4 4
5 8 10 12 10 9 12 12 8 5 4 5 4 3 2 2 3 3 5 5 5 5 5 3 2 1 2 1 2 3 3 3 4 4 4 4 4 3
5 8 12 14 10 9 9 8 6 5 4 4 3 3 3 3 4 3 3 3 4 5 6 7 5 3 3 3 2 3 3 3 4 4 3 4 4 4
5 6 6 6 7 6 6 6 6 5 5 4 4 4 4 4 4 4 3 3 4 3 5 5 5 5 6 4 3 4 3 3 4 4 3 3 4 5
8 6 6 5 5 5 5 5 5 5 4 4 4 4 4 4 4 4 4 4 4 3 3 3 3 3 3 5 7 4 3 3 3 4 3 3 3 4
7 6 5 5 4 4 4 4 4 4 4 4 4 4 4 3 3 4 3 3 3 3 3 3 3 3 3 3 4 8 4 3 3 4 4 3 2 3
5 5 4 4 4 4 4 3 3 4 4 4 4 4 4 3 3 3 3 3 2 3 3 3 3 2 1 1 1 4 8 4 3 3 3 3 2 2
4 4 4 3 3 3 3 3 3 3 4 3 3 4 3 3 3 3 3 4 3 2 3 3 4 3 1 3 3 3 4 6 5 3 3 3 3 4
3 3 3 3 3 3 3 3 3 3 4 3 3 3 3 3 3 3 3 3 2 2 2 3 4 4 4 4 3 2 4 5 6 8 7 5 2 2
2 2 2 2 3 2 2 3 3 3 3 3 3 3 2 2 2 2 3 3 3 3 3 3 4 4 4 3 3 3 4 5 4 5 5 9 8 5
Wind_Direction
207 199 202 208 200 196 182 171 168 200 255 261 257 248 216 202 204 198 203 213 214 216 217 217 217 219 224 230 234 238 243 248 255 266 275 277 280 284
192 179 188 191 188 186 182 178 172 175 219 254 245 250 225 215 208 200 211 218 219 218 221 222 222 222 223 226 227 226 227 232 241 250 256 260 262 267
192 181 201 190 184 186 176 174 179 173 208 256 257 254 227 229 210 207 214 216 226 227 227 227 226 225 226 228 228 227 229 232 239 246 251 254 254 255
193 176 208 186 186 190 182 192 192 189 193 236 266 262 248 233 218 221 222 219 218 232 232 231 229 227 227 229 231 231 233 235 239 245 250 255 255 256
188 182 192 162 178 178 182 192 198 190 186 203 245 256 278 293 241 258 245 267 245 249 241 236 233 231 230 231 234 236 238 239 241 243 248 253 258 261
187 177 172 158 160 156 153 162 150 143 155 175 224 280 300 336 69 270 309 316 298 302 274 243 233 232 234 236 238 239 240 241 242 242 244 247 252 257
91 90 127 148 148 144 134 137 129 118 111 108 83 36 330 348 292 255 256 315 303 293 286 262 238 237 237 242 243 244 244 243 243 243 244 245 248 253
119 103 92 87 108 105 111 129 143 138 137 127 119 135 273 256 210 89 64 11 323 327 325 297 247 253 250 239 249 252 252 251 249 246 246 246 248 251
134 140 122 90 88 89 80 66 61 93 140 148 150 192 209 213 154 117 183 214 254 295 351 310 318 288 276 262 258 259 256 255 254 252 252 253 253 254
92 128 123 103 105 121 110 84 46 33 79 135 158 183 187 177 160 166 187 255 322 346 25 326 326 313 320 315 318 308 293 282 281 277 274 275 274 270
56 74 96 90 90 124 115 104 73 33 47 84 102 82 81 97 105 79 49 50 18 348 2 1 330 328 335 342 354 9 3 347 325 308 301 298 295 291
48 44 54 72 81 102 108 110 99 62 63 64 54 43 44 45 53 67 88 81 60 357 343 2 346 357 357 349 1 9 7 3 1 353 344 334 326 316
58 39 34 61 73 81 88 91 102 104 87 79 65 50 40 36 29 30 48 101 104 23 329 30 10 13 18 340 350 4 16 6 3 0 360 357 354 347
65 46 49 66 69 68 69 73 82 84 80 74 65 50 37 26 18 26 39 53 69 76 9 44 55 18 20 17 352 345 2 10 9 3 359 4 10 8
67 70 68 63 61 58 57 63 65 69 75 74 67 49 25 15 21 28 31 43 45 39 30 29 46 39 53 47 6 349 350 358 6 7 11 21 19 14
60 62 64 62 58 53 50 49 49 58 73 73 66 43 30 35 34 34 39 34 43 18 12 21 29 48 59 46 52 27 12 2 350 356 13 30 30 29
70 59 53 50 51 46 45 45 44 47 51 47 54 50 41 41 32 26 40 46 53 29 8 7 22 49 58 54 51 29 16 8 355 352 14 36 36 31
73 66 60 56 54 50 51 47 42 42 40 47 51 50 47 45 39 32 43 54 55 36 19 359 3 22 38 45 39 31 16 2 350 359 16 34 40 29
69 64 61 56 51 49 50 53 46 34 39 46 47 43 44 45 47 42 41 47 47 33 13 5 19 48 57 37 13 26 20 356 357 8 13 21 28 12
58 61 55 50 48 47 47 50 47 38 37 39 39 38 41 49 50 45 42 48 46 33 19 14 19 30 74 86 45 3 14 20 14 8 358 2 4 342
56 54 49 46 43 44 46 52 55 49 40 37 34 34 37 49 52 47 49 46 49 40 30 1 334 350 75 68 60 10 354 17 36 24 0 10 3 0
68 62 48 45 43 44 49 56 54 46 37 35 28 27 32 48 57 55 52 48 38 35 27 0 1 31 52 71 70 26 358 357 11 29 38 40 36 8
95 84 62 45 44 48 57 63 65 49 35 29 24 22 33 45 47 53 51 48 45 42 43 35 28 41 48 59 63 40 22 9 3 13 8 11 27 29